Location: JAPAN
(35.1974°N, 137.0216°E)
Time: 15:49:39
(UTC+09:00)

ISS - Visible Passes

Search period start: 28 May 2017 00:00
Search period end: 07 June 2017 00:00
Orbit: 402 x 408 km, 51.6° (Epoch: 28 May)

Date Brightness Start Highest point End Pass type
(mag) Time Alt. Az. Time Alt. Az. Time Alt. Az.
28 May -0.3 01:04:44 10° N 01:04:55 11° N 01:04:55 11° N visible
29 May -0.4 20:04:26 10° NW 20:05:52 12° NNW 20:07:17 10° N visible
02 Jun -0.2 23:04:48 10° NNW 23:04:56 11° NNW 23:04:56 11° NNW visible
03 Jun -0.7 22:13:24 10° N 22:14:28 12° NNE 22:14:28 12° NNE visible
04 Jun -0.3 22:56:33 10° NW 22:56:39 11° NW 22:56:39 11° NW visible
05 Jun -1.1 22:04:44 10° NNW 22:06:15 19° N 22:06:15 19° N visible
06 Jun -1.3 21:13:10 10° N 21:15:07 15° NNE 21:15:51 14° NE visible
